User: anonymous   Login
Location: ??????
(55.8274°N, 37.9338°E)
Time: 05:44:49
(UTC+00:00)
Language:

Cosmos 2333 Rocket - Orbit

View from above orbital plane
View from above orbital plane
View from above satellite
View from above satellite

Ground track
Ground track

The orbit data is extracted from the following two-line orbital elements,

1 24298U 96051B   24174.11132498 -.00000222  00000-0 -93481-4 0  9990
2 24298  70.8035  58.3690 0017145 332.5471  27.4741 14.12473062433313
Epoch (UTC): 22 June 2024 02:40:18
Eccentricity: 0.0017145
inclination: 70.8035°
perigee height: 838 km
apogee height: 863 km
right ascension of ascending node: 58.3690°
argument of perigee: 332.5471°
revolutions per day: 14.12473062
mean anomaly at epoch: 27.4741°
orbit number at epoch: 43331

The dashed part of the orbit path shows where the satellite is in the earth's shadow,  

DLR